Wind_Speed
19 19 18 16 15 15 14 14 14 14 12 10 9 8 6 6 7 7 8 8 8 8 9 8 7 5 4 5 4 6 8 8 8 8 6 6 7 5 2 0 5 8 8 8 7 7 6 4 4 5 5 5 5 4 4 3 2 2 3 4 2 2 3 4 5 5 4 4 4 4 6 7 3 5 9 6 7 8 7 6 5 8 12 13 12 15 18 19
20 19 18 17 16 15 14 13 13 13 11 9 8 7 5 6 7 8 8 8 8 8 9 8 7 5 5 6 6 9 10 9 8 7 6 6 5 3 2 7 10 9 8 8 8 7 6 5 4 4 5 6 5 4 5 4 5 3 3 3 3 4 5 4 8 9 7 7 6 9 11 8 8 11 9 4 5 7 7 8 9 13 13 13 14 16 18 19
19 20 19 18 16 15 13 12 12 12 10 8 7 6 4 6 7 8 8 8 8 8 8 7 6 6 6 7 7 11 11 7 6 7 7 5 3 4 8 11 10 9 8 8 9 8 6 5 4 2 5 5 5 5 5 4 5 4 3 2 4 6 5 3 10 13 14 18 12 10 10 8 9 9 6 7 7 4 4 5 7 12 12 13 14 15 18 19
19 20 19 18 17 15 13 12 12 11 9 7 6 5 3 5 6 7 7 7 7 7 7 7 7 8 8 8 9 13 10 4 6 9 7 4 4 7 12 11 10 9 8 8 8 8 6 5 4 2 3 3 4 4 4 6 6 3 4 4 4 6 2 3 10 17 19 23 17 11 9 7 5 5 8 10 7 2 1 3 5 12 14 13 14 15 16 17
19 20 20 20 17 15 13 11 11 10 8 6 5 4 3 4 6 7 7 6 7 6 7 8 8 9 10 10 12 13 8 3 6 9 5 5 7 10 11 9 9 8 7 8 8 7 6 4 4 3 4 2 3 2 3 9 8 3 4 7 6 6 2 1 14 22 20 19 16 12 7 5 4 6 7 5 4 2 2 3 10 15 14 14 14 14 15 15
19 20 21 21 18 15 12 11 10 9 7 6 5 4 2 3 5 6 6 5 6 7 8 8 9 10 11 12 12 11 7 3 7 8 5 7 10 11 10 8 8 8 8 8 8 7 6 5 5 3 3 2 4 3 3 9 10 3 2 6 7 6 5 9 19 22 19 17 12 9 8 7 8 7 4 5 6 3 3 6 13 15 14 15 14 13 14 14
20 20 21 21 19 15 12 10 10 8 6 5 4 3 2 3 4 4 4 5 6 7 8 8 9 10 12 13 9 8 7 6 8 5 7 9 10 9 8 8 8 7 8 9 9 9 8 7 6 2 3 3 3 4 1 5 10 5 1 4 7 8 12 17 20 18 18 17 11 12 12 8 7 4 4 7 6 4 5 9 14 14 14 15 13 13 13 12
20 20 21 21 19 15 12 10 9 8 6 5 4 3 3 3 3 4 4 5 7 8 8 9 10 11 13 13 9 6 7 9 9 5 8 8 8 7 7 7 8 7 8 9 10 11 10 9 6 2 2 2 1 3 0 1 4 4 3 3 6 11 16 20 21 19 18 16 15 16 13 10 10 6 4 5 3 4 7 10 13 13 14 14 11 12 11 11
20 20 21 21 19 15 12 10 9 7 5 5 3 3 3 3 3 4 4 6 7 7 9 10 11 12 13 13 9 5 6 8 8 5 6 5 5 5 4 5 6 7 9 9 10 10 10 10 7 5 2 0 1 1 1 2 1 3 4 8 10 12 17 21 20 18 17 14 16 17 13 10 9 5 2 2 2 5 8 11 12 11 12 12 9 10 10 10
20 20 21 21 19 15 12 11 9 7 6 4 3 3 3 3 3 4 5 6 7 8 10 11 11 12 13 13 8 3 4 6 5 3 2 2 4 5 4 4 5 7 8 8 9 9 10 11 11 7 1 1 3 5 5 2 4 10 17 19 16 15 15 17 18 18 16 12 12 13 8 6 7 2 1 2 3 5 7 10 10 9 10 10 8 9 10 9
19 19 20 21 19 15 13 10 9 7 5 4 3 3 3 3 3 4 6 7 7 9 11 12 12 13 14 13 6 3 3 5 2 2 2 3 4 4 4 5 6 7 8 7 8 9 10 12 12 7 2 3 3 9 11 9 16 24 28 21 16 17 15 14 15 15 11 8 12 12 6 5 8 3 2 4 5 6 7 7 7 7 8 9 7 7 8 8
18 19 19 20 18 15 12 10 9 7 5 3 2 2 2 3 4 5 6 7 8 9 11 12 12 15 16 11 4 1 4 5 2 2 2 3 3 4 4 5 6 7 7 7 7 8 11 11 11 7 3 3 2 7 10 16 22 25 25 16 10 12 10 6 6 7 4 7 11 8 4 5 5 2 1 5 5 4 6 5 4 4 6 7 6 8 9 8
17 18 18 19 18 15 12 9 8 6 4 3 2 2 3 3 5 6 7 7 8 9 10 11 13 16 17 10 3 3 5 4 3 3 2 2 3 4 5 5 5 5 6 6 6 8 10 9 10 8 3 4 4 9 13 18 19 16 14 10 8 7 2 2 1 2 3 10 8 6 1 3 5 1 2 5 4 3 4 2 2 2 5 5 5 9 10 8
16 17 17 18 17 14 10 9 8 6 5 3 2 3 3 4 5 6 7 7 8 9 10 11 12 15 16 9 3 3 3 2 2 3 4 4 5 5 5 5 5 5 5 5 6 7 8 8 9 6 2 3 6 16 13 9 9 9 7 5 4 5 3 5 3 1 4 11 1 8 4 5 5 3 3 6 4 2 3 0 1 0 3 5 5 9 11 9
15 16 16 17 16 12 9 9 9 9 7 4 3 3 4 5 5 6 6 7 8 9 10 11 13 14 14 7 2 2 2 3 3 4 5 6 7 6 6 6 5 4 4 5 6 6 8 8 7 4 2 2 6 10 5 4 3 3 5 2 2 3 5 6 7 5 3 7 4 5 4 4 5 4 5 6 3 2 2 2 2 2 1 4 7 9 9 9
14 15 15 15 15 11 8 8 10 10 8 5 4 4 6 5 4 5 5 6 8 9 11 12 14 13 8 4 2 2 3 4 5 5 5 6 6 7 7 8 8 6 6 7 7 6 7 7 3 2 3 2 5 6 5 4 2 4 3 5 1 3 5 3 5 10 5 2 2 2 2 3 4 4 7 5 4 4 3 2 2 2 3 6 8 10 10 10
13 13 14 14 13 10 6 7 8 9 8 6 5 6 7 6 5 4 4 6 8 11 12 10 11 10 4 2 2 3 5 5 5 6 8 8 7 8 8 10 10 10 9 5 5 3 4 4 0 0 4 4 3 5 5 3 1 2 3 3 2 4 5 2 1 9 7 3 2 2 2 5 3 4 10 5 5 6 4 2 6 8 7 7 8 10 12 12
12 12 13 12 12 10 5 4 5 8 8 6 6 7 6 5 5 4 4 6 9 11 8 6 9 6 1 4 5 7 10 8 6 7 9 8 7 9 9 9 11 11 9 4 4 4 2 3 1 1 4 5 3 5 4 2 4 4 3 4 3 3 5 6 3 6 6 4 1 1 2 6 3 4 8 5 7 8 5 3 7 8 8 9 9 11 13 12
11 11 12 11 11 10 5 2 3 5 8 6 7 9 6 4 4 3 4 7 8 6 3 5 8 2 4 8 8 10 12 10 8 9 9 8 6 8 8 8 9 8 6 3 3 5 3 3 4 3 3 2 1 4 5 7 7 8 6 5 6 5 4 6 3 4 8 6 1 3 2 4 2 3 6 6 9 9 6 6 9 7 7 9 10 11 12 12
10 10 11 10 9 9 7 3 2 3 6 6 8 9 6 6 4 3 9 9 5 2 4 7 9 6 9 11 9 10 11 9 10 9 7 7 5 5 6 6 7 5 4 1 2 4 4 4 2 2 3 4 5 5 5 4 7 8 7 6 6 6 4 4 2 3 7 6 1 2 1 1 3 4 6 9 9 9 8 10 13 13 12 12 12 13 13 12
10 9 10 9 7 8 8 5 3 4 5 7 10 8 7 8 5 5 12 9 3 4 7 8 8 9 10 10 10 11 10 7 7 5 4 6 4 3 4 4 4 4 3 1 0 3 4 5 1 5 6 4 3 5 7 6 6 6 6 7 4 3 4 1 3 4 4 5 2 1 3 1 2 4 6 9 8 8 11 12 12 16 16 14 15 17 15 13
11 9 8 8 6 6 7 7 5 4 5 6 8 7 9 8 6 6 9 7 8 8 7 8 6 8 9 9 10 8 7 6 5 2 3 6 4 3 3 3 4 2 4 2 2 5 5 1 5 6 4 5 5 6 8 7 6 5 4 6 4 2 2 3 3 3 1 3 2 1 3 0 0 3 5 7 6 5 10 13 11 15 18 18 19 20 18 15
11 9 8 7 6 5 5 7 5 3 4 5 6 7 6 5 4 7 6 6 10 9 5 6 5 7 8 7 7 6 5 4 3 2 3 5 4 3 1 3 4 2 4 4 4 3 3 3 6 2 5 7 6 5 8 7 5 4 4 5 4 3 2 1 1 2 2 3 4 4 4 2 0 3 4 6 8 5 7 13 14 16 20 21 20 18 18 18
12 10 8 7 6 5 3 4 4 2 4 5 5 6 5 5 4 6 5 3 5 6 5 5 5 5 5 5 4 4 5 5 5 3 2 4 4 3 1 2 3 4 4 2 7 5 2 6 2 5 4 6 7 4 5 7 3 2 3 5 4 4 4 4 4 3 4 6 4 6 4 3 3 5 6 5 8 6 5 11 16 20 23 23 20 18 18 20
13 10 8 7 6 5 5 3 2 2 3 4 4 4 7 7 5 4 4 1 2 5 5 4 3 3 4 3 2 4 5 6 7 5 3 2 2 2 1 2 3 3 1 3 7 4 1 4 1 5 5 6 7 3 3 6 2 3 2 5 6 6 5 6 7 5 4 4 2 3 3 4 3 5 7 4 6 9 6 9 16 22 25 25 25 24 20 21
14 11 9 8 6 4 4 4 3 3 3 4 4 5 8 7 4 2 1 3 1 5 5 2 2 4 4 3 1 3 3 3 4 5 4 2 2 2 1 1 3 3 3 4 4 2 1 3 2 5 6 7 6 2 2 5 5 1 4 6 5 6 7 8 8 4 2 1 3 3 3 3 4 4 7 5 6 9 7 8 14 21 26 27 29 29 25 24
14 11 9 8 7 4 3 4 5 4 4 4 5 6 6 6 3 2 1 5 2 4 3 2 3 3 5 5 2 1 1 4 4 3 5 5 4 1 1 2 2 1 1 3 3 2 2 4 6 5 6 6 5 1 3 5 7 1 4 6 6 6 7 8 7 4 2 2 2 3 3 0 3 5 5 7 7 8 8 10 13 19 26 28 31 32 29 27
14 11 9 8 7 5 3 4 5 5 4 6 7 6 5 4 2 1 3 4 2 3 2 3 3 3 9 7 2 3 4 4 3 2 5 5 5 1 2 2 3 1 2 5 2 4 1 2 1 4 6 4 2 3 6 7 4 3 3 7 5 5 5 5 6 3 1 3 2 3 0 1 4 6 2 5 7 8 11 12 14 19 25 29 32 33 31 28
14 12 9 7 7 6 5 5 5 5 6 7 8 6 4 3 1 2 5 2 2 2 1 3 4 5 12 9 2 3 3 3 1 1 2 2 4 1 2 2 5 4 3 5 4 4 0 2 3 5 5 2 4 4 6 7 2 4 6 7 5 6 5 4 5 4 3 3 3 6 3 2 5 5 2 2 5 8 12 11 14 22 25 28 31 33 32 29
15 12 9 7 6 6 6 6 6 7 7 8 7 5 4 1 1 4 3 1 1 2 3 4 4 6 10 8 3 4 3 2 2 1 1 2 1 1 4 2 4 6 4 4 3 2 4 3 3 2 2 4 3 1 2 3 3 6 6 6 6 5 5 4 3 4 5 1 5 6 5 4 3 5 2 3 5 9 11 9 10 18 25 28 32 34 33 31
15 12 9 7 6 6 6 6 6 7 7 6 5 4 2 1 4 5 1 2 1 3 4 3 4 5 6 4 3 5 3 3 3 1 1 2 2 2 4 2 2 5 5 5 1 4 7 2 1 2 1 2 3 4 2 3 5 6 4 4 4 3 4 4 4 4 4 2 5 4 4 6 3 5 5 7 9 7 8 8 9 15 25 32 34 35 35 33
14 10 8 7 6 5 6 6 5 6 6 4 4 2 1 1 3 1 2 2 1 2 2 1 3 5 5 3 1 4 3 4 5 3 2 1 3 3 2 3 1 3 4 2 1 4 4 0 3 4 1 1 3 2 3 6 5 5 4 5 4 2 3 2 3 2 1 4 3 1 2 3 5 7 6 9 11 10 10 13 15 18 26 33 35 36 36 35
13 8 6 6 5 5 5 5 4 4 4 3 3 1 4 4 0 2 2 2 1 2 1 1 3 3 3 4 3 4 3 3 4 3 2 1 3 2 1 1 3 3 0 2 1 4 3 4 6 4 1 2 3 4 0 2 3 3 3 4 3 2 3 1 3 1 3 3 1 2 2 1 4 5 5 8 11 15 17 21 23 22 24 29 33 34 34 35
11 6 4 4 5 5 4 4 4 3 3 3 2 2 5 2 2 3 2 2 2 1 2 1 3 4 3 3 2 4 2 1 3 3 2 3 3 1 2 3 2 4 4 2 1 1 1 3 4 1 2 3 2 3 4 4 3 1 3 5 3 4 4 2 3 2 3 2 2 3 1 2 2 3 5 7 10 13 17 21 23 23 21 20 23 28 31 34
8 4 4 5 7 7 7 6 4 4 3 2 3 5 3 2 2 1 2 3 1 2 2 2 3 5 4 3 3 3 2 1 3 5 4 3 1 1 0 1 3 3 5 2 1 1 2 3 6 4 3 1 2 1 4 5 3 1 2 4 1 3 4 2 2 4 2 1 1 2 2 4 4 4 5 6 6 7 8 13 17 20 19 15 17 24 29 32
6 3 6 7 9 9 10 8 6 6 4 2 5 4 2 3 2 2 3 1 1 0 2 4 4 4 4 4 4 5 2 1 4 4 3 2 1 2 1 2 2 2 4 3 2 1 2 3 6 5 2 1 2 1 2 3 1 1 1 1 3 3 6 4 1 1 3 1 2 1 2 5 3 3 5 6 5 6 5 4 9 14 15 15 18 23 27 31
3 4 9 7 8 10 11 10 8 8 5 4 5 1 3 2 3 4 2 1 1 2 4 3 2 2 2 2 3 6 4 3 4 3 2 2 1 1 3 3 1 1 3 3 2 2 3 2 6 3 1 3 5 3 4 5 3 1 1 3 3 2 4 4 1 3 4 0 3 2 2 5 3 1 5 6 5 6 5 4 4 7 11 16 21 24 26 29
5 8 9 7 6 8 10 10 10 8 4 4 3 1 2 1 2 3 2 2 1 3 6 2 1 0 1 0 3 5 4 3 4 3 1 1 1 1 2 2 1 2 2 4 3 1 3 1 7 2 2 6 6 4 3 5 4 2 2 2 2 2 0 1 1 0 1 1 3 4 3 3 2 3 4 4 5 6 5 4 3 7 13 19 22 23 25 27
5 6 6 6 4 5 9 10 10 8 5 4 1 1 1 1 2 1 1 1 2 4 3 2 1 1 1 1 1 4 3 2 1 2 1 1 1 1 1 1 1 5 3 6 4 0 2 2 4 5 3 4 6 3 1 4 5 3 2 2 2 2 3 1 1 2 2 1 2 3 4 2 5 5 4 6 8 6 5 5 6 11 18 23 24 24 26 28
4 3 4 4 3 5 8 9 9 7 5 2 2 2 1 2 2 2 2 1 1 3 1 3 2 1 1 1 1 2 2 1 1 1 0 1 1 2 3 1 2 4 6 7 5 1 2 3 1 6 4 3 3 0 4 3 2 2 2 1 1 1 2 1 0 1 3 3 2 1 2 4 6 4 6 8 8 6 8 8 8 15 22 24 25 25 27 30
4 3 2 2 2 5 8 7 7 5 3 2 2 1 1 1 2 2 2 2 1 2 2 3 4 2 1 0 1 1 1 2 1 1 0 0 1 1 3 4 2 2 3 6 5 1 1 2 1 3 5 2 4 5 3 5 5 4 2 3 3 2 2 1 2 2 1 2 3 3 2 7 6 3 5 7 5 7 12 11 11 18 24 25 25 26 27 29
4 2 1 2 2 5 6 4 3 2 3 1 2 3 3 2 1 1 1 2 2 2 2 3 2 2 2 2 1 1 0 1 1 1 0 1 2 3 4 8 5 2 2 3 1 1 2 3 2 1 3 4 8 7 1 3 5 5 2 2 3 3 4 4 2 3 0 1 1 3 1 6 6 3 4 6 7 9 13 15 15 19 23 24 25 26 27 29
5 3 2 2 3 4 4 3 4 4 1 3 4 3 3 1 1 1 2 2 2 1 1 1 1 1 1 2 1 0 0 1 0 1 0 2 2 2 5 8 4 2 4 2 2 1 2 3 3 2 4 5 7 5 4 4 5 5 2 1 2 2 2 4 4 3 2 2 2 1 2 6 6 4 4 7 8 8 11 15 19 20 20 22 24 25 26 28
7 4 4 4 3 3 3 2 2 3 4 5 4 2 2 0 2 2 1 1 1 1 1 0 1 2 1 1 2 1 1 1 0 1 0 1 2 3 7 7 2 2 2 1 2 1 1 1 2 2 4 6 6 6 5 5 4 2 2 3 2 3 4 2 2 3 1 3 4 3 4 6 5 5 6 6 5 5 8 12 18 20 19 20 23 24 26 27
7 3 5 7 5 3 5 4 2 1 3 4 4 3 3 2 2 2 1 0 1 2 2 1 1 2 1 2 2 2 1 1 0 2 1 1 2 3 7 7 4 3 3 2 3 3 2 1 3 3 0 2 2 3 3 3 2 1 1 3 3 3 3 1 1 3 1 3 3 4 4 6 6 6 6 6 5 6 7 7 13 18 20 20 21 23 25 27
5 2 4 6 8 9 9 6 5 2 0 3 3 2 2 1 1 2 1 1 1 2 2 0 1 2 2 2 2 3 3 1 1 2 1 2 3 3 5 6 5 5 4 4 3 3 3 1 2 5 5 5 5 6 5 2 0 3 3 2 1 1 2 3 3 2 3 2 2 5 5 5 8 7 6 7 6 5 7 7 11 16 20 21 21 23 25 26
4 2 2 3 5 6 6 8 9 4 0 1 1 2 2 2 2 2 0 0 1 1 1 1 2 1 0 1 2 1 3 4 3 2 1 2 3 4 5 4 4 3 2 3 3 3 4 1 1 5 5 7 7 7 3 2 2 4 3 4 3 3 3 4 3 4 4 3 4 7 5 4 7 8 6 8 7 6 8 12 14 16 19 22 23 23 25 26
4 1 2 3 2 1 2 7 10 6 1 1 1 2 3 3 3 1 1 1 1 2 1 2 2 1 4 3 3 1 2 4 4 2 1 2 2 4 5 4 3 4 2 3 4 4 5 1 2 3 3 6 5 5 2 1 3 3 3 6 5 4 6 5 6 6 6 5 7 6 6 7 8 7 6 9 10 8 10 13 14 15 17 19 21 23 25 26
4 3 3 4 1 1 2 7 9 6 2 0 0 2 3 2 2 3 3 1 3 1 2 1 4 3 3 3 4 3 1 1 1 3 2 1 1 2 2 3 3 4 3 3 3 3 3 1 2 2 3 6 5 6 4 2 2 3 5 8 7 6 7 7 6 6 7 8 9 6 6 8 9 8 11 16 17 14 13 15 15 17 18 18 19 22 24 26
4 3 2 3 1 2 4 6 6 4 3 2 1 2 2 0 2 4 3 1 1 2 2 3 5 3 3 4 5 3 5 6 5 4 4 3 1 2 2 2 2 2 4 2 1 2 1 2 0 3 2 6 6 4 1 1 1 4 8 8 8 8 7 5 5 4 5 6 7 5 5 7 8 10 15 21 21 16 15 18 19 19 19 17 17 20 22 26
3 3 4 3 1 3 5 4 3 2 2 3 1 1 2 1 1 4 4 5 5 4 3 5 6 2 3 3 3 5 9 9 9 8 8 8 5 4 4 3 4 1 2 0 1 1 1 1 1 4 1 5 5 4 4 3 2 4 10 11 10 8 6 4 4 5 5 4 4 3 3 6 6 5 9 14 14 11 14 17 18 18 17 17 19 21 23 25
2 2 3 3 1 2 3 3 3 3 1 2 2 2 3 5 5 4 2 4 4 5 5 5 7 5 2 2 4 7 9 8 9 9 7 9 9 7 7 6 5 5 2 2 1 0 3 3 1 2 1 5 5 4 3 4 5 5 8 7 6 5 5 4 4 5 6 4 3 3 5 6 5 3 5 8 9 9 13 16 16 15 13 14 17 21 24 25
Wind_Direction
17 14 10 5 2 2 3 1 0 2 8 11 14 25 39 52 67 72 68 58 50 45 42 43 43 43 29 14 1 353 345 338 337 333 334 336 332 328 322 108 124 117 110 95 81 78 77 66 80 87 106 136 145 154 144 160 166 70 84 94 128 192 185 193 187 175 143 148 193 211 179 151 143 123 123 118 107 110 105 92 98 127 131 132 142 154 163 164
15 12 10 6 2 360 360 0 359 0 7 9 17 29 48 60 67 67 61 52 45 41 41 42 40 35 17 2 346 348 344 335 340 345 345 338 334 345 94 122 123 114 98 80 68 65 64 71 80 85 104 108 100 115 132 156 167 146 101 119 199 204 212 216 162 159 146 141 157 158 160 158 141 136 139 136 109 118 105 91 108 120 124 132 144 153 159 164
13 10 8 6 2 359 359 359 358 360 6 9 18 32 61 67 67 62 55 51 44 42 41 36 29 18 7 357 347 349 344 340 4 9 359 356 18 75 115 118 110 96 77 62 54 47 41 45 41 88 115 98 99 121 130 141 172 184 126 126 241 210 233 258 157 164 157 146 145 153 158 151 138 133 144 145 117 98 104 105 115 126 136 140 148 154 153 161
12 8 6 5 2 0 359 358 357 359 5 11 19 36 74 71 65 57 50 50 41 41 35 27 20 12 6 356 345 345 344 355 21 12 6 37 66 101 115 105 90 79 64 50 37 29 24 30 34 101 129 90 110 134 154 166 180 184 142 164 229 188 210 298 168 161 149 144 145 153 148 138 150 148 147 137 113 92 130 146 159 147 148 149 154 160 156 162
11 7 5 4 2 1 360 359 357 357 4 12 18 37 82 74 59 51 47 44 37 37 28 25 20 12 7 354 343 346 359 27 8 9 30 73 85 108 108 91 79 66 51 38 22 21 19 28 47 103 134 107 113 119 201 188 177 150 168 177 167 155 151 270 158 150 146 145 142 140 135 137 136 121 134 111 71 166 177 187 172 151 150 154 154 161 161 162
10 6 4 4 2 1 1 0 357 356 2 9 18 36 81 74 53 47 42 36 33 32 29 30 21 11 4 354 349 356 18 40 358 14 80 93 94 100 93 78 66 48 38 28 23 33 25 35 55 105 130 98 148 168 223 193 185 169 208 187 174 168 145 144 146 146 149 144 132 129 127 123 111 93 76 49 52 114 154 174 163 148 152 154 152 158 156 160
9 5 3 3 4 2 2 1 358 356 360 6 18 41 79 67 49 45 37 35 32 30 30 27 14 6 2 360 4 7 20 34 15 48 115 102 95 90 77 65 51 40 34 30 37 43 39 49 51 107 119 65 171 199 248 200 193 173 181 197 184 161 138 141 142 142 143 133 124 126 119 93 91 92 55 65 77 112 145 167 160 150 153 151 152 154 151 161
8 4 2 3 5 5 3 2 358 357 359 5 21 54 79 62 50 47 40 35 28 27 24 15 7 3 3 5 11 15 24 31 31 94 122 97 90 80 68 58 46 38 33 35 43 45 41 40 34 43 95 67 205 212 117 146 181 166 187 172 140 124 126 133 130 130 127 118 120 113 96 73 80 97 80 70 91 131 152 162 159 152 152 151 153 157 155 164
8 4 1 3 6 9 6 2 1 0 360 4 30 65 73 59 58 55 41 29 22 19 13 8 5 0 4 5 4 19 32 32 42 99 123 93 72 55 50 49 42 34 31 33 36 40 36 26 17 0 353 166 312 320 67 78 210 182 134 103 99 98 112 122 118 120 116 113 121 106 87 82 75 78 74 54 120 153 164 160 159 156 156 156 155 166 167 167
7 4 0 2 6 11 8 5 4 3 1 7 39 69 66 64 62 49 32 20 14 9 4 3 2 359 3 0 2 55 40 21 38 67 92 46 28 29 34 31 24 21 20 26 28 27 25 17 7 358 347 270 330 21 38 72 122 112 98 84 85 85 92 109 109 114 109 97 109 110 112 76 35 53 168 231 169 168 171 159 162 163 166 162 155 171 173 173
6 3 360 0 5 10 9 7 9 8 5 11 50 73 66 63 48 33 20 13 8 3 360 357 354 357 357 353 3 93 23 359 1 342 324 323 350 12 17 3 357 1 2 15 27 18 9 7 4 0 4 320 9 59 56 95 114 109 100 81 74 80 80 90 103 119 109 87 102 105 112 47 29 63 179 199 173 174 176 165 163 167 177 168 158 180 179 181
5 2 359 359 3 8 9 11 15 15 10 17 59 69 57 46 26 17 8 5 4 359 354 350 347 351 352 352 10 44 343 339 324 316 307 298 323 346 353 343 342 346 346 2 25 14 359 2 2 352 348 340 41 68 76 105 107 106 103 91 76 70 71 67 94 133 111 121 123 91 54 12 5 22 177 180 170 173 173 174 163 153 179 171 160 186 190 189
3 2 358 357 2 6 10 18 23 24 22 26 49 46 44 29 10 7 1 359 359 353 346 343 342 344 346 350 360 329 322 326 335 354 343 325 342 352 344 332 336 341 334 346 10 4 352 356 354 343 345 2 59 105 113 108 98 95 90 95 102 75 47 299 132 143 120 140 121 33 68 299 308 238 204 182 174 178 173 183 177 144 183 186 171 193 207 195
360 1 356 355 360 5 13 26 34 36 33 18 12 16 17 8 359 357 353 352 350 344 341 338 336 339 340 340 340 324 323 339 10 22 359 347 3 20 14 351 338 329 326 338 352 353 347 348 342 334 339 4 102 119 110 83 82 94 71 51 94 108 185 241 233 153 125 162 141 17 148 242 280 218 208 188 180 182 166 125 261 232 192 204 201 204 215 192
357 359 356 354 357 6 20 36 49 51 46 30 357 346 348 350 350 349 349 347 341 335 334 330 329 333 332 332 331 324 340 9 24 20 357 351 1 17 26 12 351 332 334 339 337 338 339 339 334 324 332 9 108 116 84 26 32 68 87 85 11 102 172 241 240 204 139 190 247 23 123 253 275 211 187 180 187 126 90 19 359 340 235 203 208 209 207 183
352 357 355 351 354 7 27 50 62 55 51 44 9 359 2 358 348 348 347 336 328 325 328 326 329 334 332 337 2 357 347 351 9 12 354 346 344 351 353 351 354 347 333 327 323 311 316 329 339 354 11 63 92 89 69 72 25 353 86 150 198 98 155 245 241 211 212 191 222 31 134 241 288 187 172 177 187 140 91 62 134 157 218 204 199 202 196 185
348 354 354 349 352 6 33 66 67 48 42 39 22 13 7 0 356 347 329 320 313 316 321 325 334 334 326 353 9 3 349 336 341 348 349 346 344 350 342 337 344 340 333 338 348 334 314 331 200 54 36 67 81 82 71 57 278 335 58 119 151 123 159 197 226 208 198 121 196 310 184 217 324 132 159 173 178 153 99 145 184 170 186 211 204 194 189 186
345 351 353 349 348 359 29 73 65 44 30 25 17 6 356 351 349 335 311 303 304 311 319 341 350 347 299 330 333 334 336 330 320 329 342 344 349 352 339 334 337 334 341 15 41 40 14 344 61 100 18 29 41 81 96 199 173 143 126 107 116 142 172 185 206 201 163 96 165 204 199 226 316 93 144 158 166 155 117 175 208 183 181 207 211 199 189 184
342 348 352 348 343 351 11 41 52 36 17 14 8 357 347 327 322 314 309 308 310 314 312 335 345 333 258 312 328 332 330 325 314 317 329 330 339 348 341 338 335 333 356 25 19 25 28 8 53 65 4 333 164 127 165 199 158 137 145 131 140 165 202 198 214 201 145 97 108 187 230 232 223 145 146 147 158 154 141 183 207 206 206 210 213 213 198 188
339 345 350 347 340 346 359 8 17 7 2 5 354 350 359 355 339 317 325 322 319 313 289 314 322 294 288 307 323 330 330 326 318 318 331 329 319 334 341 339 337 351 19 27 311 359 36 44 52 175 207 214 212 178 154 151 127 120 121 127 149 162 201 200 186 189 133 102 276 234 333 261 188 183 158 147 156 158 168 199 206 205 211 215 219 220 209 201
337 340 348 347 336 341 357 7 11 353 345 341 343 5 43 29 20 334 330 327 326 317 304 314 314 294 294 306 316 321 326 329 329 338 360 350 331 312 325 349 12 9 335 270 183 358 52 71 5 232 213 184 176 150 121 98 89 95 116 131 142 170 205 190 120 176 116 84 261 147 99 205 187 178 166 155 167 185 193 209 214 206 209 217 226 226 216 209
337 335 344 346 329 330 353 4 15 14 358 341 351 45 73 41 18 347 334 310 305 313 308 314 307 290 294 305 312 310 305 308 321 359 7 353 349 305 308 36 47 350 302 4 62 11 34 75 272 249 188 105 85 103 104 93 83 81 104 129 141 186 192 24 69 172 64 71 204 146 109 131 112 184 188 176 195 222 211 218 223 213 214 219 226 229 220 212
339 332 338 345 328 310 339 4 19 35 23 7 22 64 65 23 349 337 333 294 299 313 322 321 305 299 306 308 309 297 281 285 300 333 343 338 335 314 329 56 47 10 349 45 110 77 39 255 263 221 137 98 70 72 95 89 75 89 108 123 157 183 144 72 117 157 18 53 150 128 86 22 328 216 229 203 213 246 231 230 232 222 218 220 226 232 223 215
340 334 330 339 332 296 296 356 18 36 28 26 45 60 30 349 310 308 319 296 294 317 341 328 310 316 320 313 303 282 267 271 281 292 326 340 342 325 324 96 70 31 355 73 119 124 213 249 249 85 93 100 97 85 100 104 55 359 141 140 159 170 162 164 142 123 32 30 110 117 64 322 217 213 239 212 211 239 235 223 233 232 226 229 237 240 230 222
339 336 325 330 334 299 273 291 345 8 9 17 33 33 8 344 312 288 316 357 298 316 339 335 329 348 339 323 272 255 268 276 273 265 269 324 343 322 318 117 75 31 323 126 103 102 252 268 192 93 57 69 103 132 153 131 101 326 227 182 173 163 148 133 127 115 48 19 219 130 60 292 246 212 223 205 207 231 227 210 227 238 237 239 243 241 237 232
335 337 327 323 328 310 278 267 284 310 323 333 337 352 355 344 325 267 334 52 2 315 340 3 5 358 345 348 295 284 304 302 273 246 244 255 288 328 15 7 37 68 175 150 103 137 230 2 71 115 91 68 67 94 184 132 106 336 237 185 158 134 128 140 144 128 91 210 231 123 117 267 305 250 213 186 206 229 230 222 226 234 240 243 242 240 239 237
330 334 332 321 322 326 289 265 287 310 328 335 333 342 348 349 345 270 4 49 14 314 334 338 353 5 353 350 325 327 287 313 323 256 237 243 266 323 49 324 24 80 186 116 83 219 223 13 33 69 80 77 63 79 190 131 106 258 238 150 137 138 150 166 152 133 168 167 42 59 108 184 307 274 219 171 193 229 233 237 234 229 234 239 240 240 240 240
325 328 333 324 318 321 295 269 290 315 328 334 341 349 352 347 325 264 76 72 331 326 7 332 338 356 352 349 239 223 253 281 348 284 245 234 251 303 94 197 161 167 11 98 154 257 196 23 41 93 73 82 152 211 180 133 114 248 190 121 128 140 150 154 127 112 102 90 21 302 354 89 268 284 313 158 190 231 232 232 235 229 229 232 236 239 240 242
323 321 330 328 314 308 301 287 293 306 313 326 339 351 353 335 291 77 77 98 286 353 17 333 341 336 349 360 221 274 295 241 147 288 246 193 247 321 91 185 151 122 31 91 162 242 262 287 228 129 96 167 220 228 177 143 146 195 129 89 73 78 76 84 106 105 62 76 234 244 193 168 268 285 350 131 196 230 232 230 230 229 228 230 233 237 239 241
323 317 322 326 315 303 299 295 297 304 316 328 336 345 351 345 87 72 55 233 264 337 315 325 335 329 349 5 324 334 5 236 251 261 110 115 254 58 111 141 113 105 20 27 118 251 309 289 229 109 104 198 173 90 166 144 118 135 109 63 49 46 46 51 65 90 72 349 254 233 189 171 268 279 222 185 210 219 220 221 222 224 227 229 231 233 235 236
324 318 317 322 320 306 301 301 303 308 318 328 337 346 354 24 72 83 132 250 280 326 341 339 325 342 9 35 327 325 355 314 313 64 54 33 22 34 98 100 49 63 14 5 48 319 340 13 224 312 301 177 105 77 44 30 70 102 80 63 68 3 14 33 358 44 89 261 258 239 178 154 208 267 235 227 245 238 215 215 209 206 217 224 228 229 229 229
327 320 317 324 328 315 306 304 311 317 319 336 352 350 117 66 30 90 251 306 311 301 352 329 311 345 354 15 320 300 329 329 337 48 78 46 37 16 74 157 170 37 356 304 311 338 353 48 301 314 315 90 91 98 10 7 38 75 68 69 85 355 4 16 325 9 173 242 254 228 165 161 223 252 244 238 249 249 230 227 221 207 209 217 223 226 226 225
330 327 327 335 345 334 316 310 324 336 327 337 348 18 92 77 348 224 287 341 260 266 349 301 315 350 346 8 352 308 340 332 326 27 84 87 56 19 349 189 153 91 124 209 358 353 340 314 328 349 352 12 92 131 236 334 29 66 109 103 100 95 60 296 271 311 266 258 293 284 241 233 276 266 230 225 244 252 246 240 237 229 218 217 220 222 222 222
334 347 4 13 21 8 1 357 349 354 336 331 359 64 78 80 228 220 282 279 255 323 39 338 324 355 18 36 332 317 13 340 326 22 28 27 45 12 351 358 25 81 110 115 89 103 74 308 307 312 288 344 58 142 167 148 89 60 153 129 131 154 139 223 228 204 251 266 302 304 262 180 224 254 228 238 267 273 262 252 247 244 237 224 219 218 218 221
343 24 74 65 51 37 34 28 5 2 344 332 49 70 100 198 239 200 238 255 284 326 344 3 27 30 8 332 308 337 57 296 345 35 33 32 52 253 289 329 344 79 107 82 275 144 86 253 260 283 274 9 43 191 146 103 70 288 168 105 111 188 139 120 186 175 183 277 284 277 235 212 220 260 283 295 305 309 281 256 245 243 240 226 216 215 216 219
352 56 107 85 58 46 37 27 15 8 351 28 64 67 159 206 201 172 207 233 68 38 348 3 38 50 349 319 324 340 8 343 7 38 30 15 217 254 278 256 291 101 127 118 190 178 56 268 281 329 333 67 34 235 124 87 136 239 114 192 234 169 116 109 182 33 69 90 272 273 263 292 320 297 313 344 343 345 346 277 240 236 231 218 215 216 215 218
30 118 130 103 63 47 32 24 23 11 358 72 85 118 218 205 179 181 198 147 129 99 81 43 20 46 335 320 318 319 340 6 9 36 29 342 267 285 322 285 286 136 181 146 159 191 126 265 295 2 81 320 349 52 62 60 104 75 292 222 203 113 91 106 127 12 42 191 276 324 269 293 349 306 317 349 329 311 331 326 259 226 216 216 219 218 219 220
91 127 128 105 66 34 18 17 20 11 18 72 71 257 218 200 214 205 185 139 129 62 79 97 299 89 191 261 298 307 340 3 357 26 50 351 307 251 328 283 40 43 193 158 114 94 110 303 298 309 209 304 345 72 53 12 39 92 201 173 111 120 184 62 113 98 40 244 285 314 298 268 207 226 290 309 265 261 288 302 269 213 210 217 220 218 219 221
112 126 99 83 67 18 4 9 15 19 45 72 61 261 201 255 264 205 155 129 108 80 83 172 227 44 159 160 256 301 353 18 357 33 82 78 24 319 16 229 309 28 68 137 128 50 86 97 287 283 259 316 360 59 184 322 352 31 75 41 32 138 164 172 139 160 177 191 255 306 329 281 229 219 215 237 239 226 225 240 234 221 218 220 220 218 218 221
131 126 84 85 77 11 352 2 22 38 59 96 181 209 292 279 286 94 102 44 87 98 105 201 167 56 274 254 267 279 5 54 146 73 112 140 53 334 4 351 281 4 47 88 96 81 57 83 257 291 320 357 350 160 164 185 286 7 38 320 313 90 132 193 28 100 139 156 182 241 303 273 249 210 192 229 242 214 204 210 220 224 224 225 224 221 221 224
108 101 72 94 73 358 353 15 34 48 82 112 185 228 311 302 318 38 82 67 87 123 143 166 154 137 175 205 301 246 350 16 78 93 275 335 90 119 348 353 317 323 39 65 58 49 117 97 171 301 343 347 260 251 191 178 182 158 170 208 183 147 142 154 302 316 99 136 163 159 245 271 260 210 210 234 235 221 220 215 219 226 225 226 228 226 227 228
83 82 41 34 3 339 359 36 24 28 107 75 308 269 276 291 316 2 56 57 61 90 106 132 141 140 159 190 270 248 80 17 7 54 130 271 162 178 313 339 342 349 69 81 339 246 150 104 86 283 282 268 269 279 280 170 152 127 129 174 149 125 114 130 214 265 60 97 147 129 202 271 263 228 235 253 253 248 238 226 226 231 229 228 230 229 230 232
35 61 69 26 348 352 28 49 353 355 9 312 312 267 260 265 105 46 15 11 23 48 50 82 147 162 191 199 197 219 137 146 351 33 256 274 233 231 325 343 345 35 73 111 251 276 101 75 50 310 295 304 304 323 19 50 86 87 24 9 113 84 93 142 175 182 161 181 154 104 270 269 275 282 289 287 279 264 244 228 228 234 235 233 231 231 233 234
7 22 49 31 351 358 59 98 326 328 306 318 348 3 321 325 101 63 2 344 18 96 103 79 172 185 233 115 117 161 257 144 236 327 313 257 264 317 354 11 48 94 78 151 187 119 89 71 79 25 344 343 340 350 358 355 31 76 313 328 37 79 87 114 126 91 187 215 157 151 244 254 271 309 323 323 316 279 249 231 228 234 238 237 234 234 235 236
5 6 34 39 39 71 94 115 148 198 297 334 2 2 349 13 61 57 68 323 66 123 127 327 192 156 108 49 57 11 3 122 308 329 343 302 284 324 3 20 49 79 85 133 140 119 123 153 119 111 104 284 290 287 269 283 324 320 296 335 9 70 99 159 117 91 218 237 157 166 230 265 289 317 328 332 339 310 283 250 232 236 240 240 239 238 236 236
29 18 5 25 48 76 90 75 64 99 300 8 22 355 356 358 349 18 59 64 62 103 114 28 108 92 47 42 45 355 342 4 18 10 359 298 282 313 355 14 50 78 87 93 85 88 100 126 146 145 173 197 205 227 226 179 221 288 295 304 318 96 102 106 102 135 194 184 202 217 216 263 293 301 305 303 304 291 283 270 245 240 240 239 238 239 239 237
49 57 353 5 22 52 70 43 33 42 117 70 50 317 335 316 316 346 101 159 64 85 84 53 67 87 150 99 95 345 329 352 356 350 323 279 274 304 326 344 43 53 65 66 40 71 98 332 236 155 195 216 204 219 225 130 201 239 263 271 237 180 140 125 167 212 166 128 270 255 206 214 267 268 266 277 277 261 262 261 254 250 246 241 238 238 239 238
45 90 77 50 10 358 42 7 360 356 2 120 206 312 344 340 343 344 250 296 32 106 116 13 355 253 203 178 129 139 348 6 347 310 296 291 306 340 336 327 354 353 357 39 29 79 114 248 235 162 247 256 226 234 241 172 234 228 225 260 262 203 173 184 219 208 161 177 246 240 187 200 248 259 251 255 257 258 266 267 265 263 255 247 242 238 237 236
51 100 69 34 19 218 307 324 328 339 5 89 355 21 21 357 337 295 265 343 360 340 127 203 287 273 217 180 125 132 203 158 291 279 255 238 293 338 333 305 322 349 19 50 23 63 117 238 227 137 311 294 269 261 241 199 268 286 257 254 255 237 213 212 229 209 185 217 245 236 215 232 250 252 253 263 267 272 280 281 276 269 258 250 246 242 239 236
60 83 23 7 18 10 349 334 339 357 4 9 27 13 357 320 338 320 282 195 283 296 119 178 245 242 177 155 126 168 217 183 180 235 204 172 237 227 214 232 226 354 19 56 27 32 100 257 219 94 354 298 291 298 288 167 220 272 276 267 253 256 251 224 221 211 200 235 254 250 251 265 262 247 253 268 275 277 277 275 272 268 260 251 249 249 246 241
53 35 19 28 21 4 1 352 16 46 10 5 18 331 338 267 321 340 293 235 217 223 205 198 204 159 101 121 147 235 241 204 198 223 203 190 216 216 211 222 190 166 3 125 161 58 108 241 17 74 33 282 295 344 351 350 337 273 278 274 257 250 243 214 202 194 188 211 245 259 264 259 257 263 273 278 280 275 269 273 276 275 267 254 250 253 253 249
42 20 26 45 5 353 18 13 35 67 14 326 305 292 288 277 305 356 318 269 252 245 254 213 172 136 99 177 215 252 263 239 230 247 237 229 245 246 243 246 208 188 182 147 141 82 128 138 145 115 200 269 292 352 2 4 358 304 269 249 229 222 221 234 261 235 203 182 187 220 236 239 251 319 317 296 289 274 270 278 286 288 284 271 261 259 259 257
Height
1519 1518 1516 1515 1514 1513 1512 1510 1510 1509 1508 1507 1507 1506 1506 1506 1506 1506 1506 1506 1505 1505 1505 1504 1504 1504 1504 1503 1503 1503 1502 1501 1501 1500 1500 1500 1499 1499 1499 1499 1499 1499 1500 1500 1500 1500 1500 1500 1500 1500 1501 1502 1504 1506 1507 1509 1509 1510 1514 1519 1521 1522 1519 1515 1516 1515 1514 1517 1518 1517 1518 1518 1519 1519 1519 1520 1521 1522 1523 1523 1523 1523 1524 1525 1525 1526 1527 1528
1520 1518 1517 1515 1514 1513 1512 1511 1510 1509 1508 1508 1507 1507 1507 1507 1507 1506 1506 1506 1506 1505 1505 1505 1505 1504 1504 1504 1503 1503 1502 1501 1500 1500 1500 1500 1499 1499 1499 1499 1500 1500 1500 1501 1501 1501 1501 1501 1501 1501 1501 1502 1504 1505 1507 1508 1509 1511 1515 1519 1520 1519 1515 1511 1512 1512 1513 1515 1517 1517 1517 1518 1518 1519 1519 1521 1523 1523 1524 1524 1524 1524 1524 1525 1526 1527 1528 1529
1520 1519 1517 1516 1514 1513 1512 1511 1510 1509 1509 1508 1508 1507 1507 1507 1507 1507 1507 1507 1506 1506 1506 1505 1505 1505 1504 1504 1503 1502 1501 1501 1500 1500 1500 1500 1500 1500 1500 1500 1500 1501 1501 1501 1501 1501 1501 1501 1501 1502 1502 1503 1504 1505 1507 1508 1509 1510 1513 1517 1516 1515 1512 1511 1511 1511 1511 1512 1515 1517 1517 1518 1519 1519 1520 1521 1523 1524 1524 1525 1524 1524 1525 1526 1527 1528 1529 1530
1521 1519 1518 1516 1515 1513 1512 1511 1510 1509 1509 1508 1508 1508 1508 1508 1508 1508 1508 1507 1507 1506 1506 1506 1506 1505 1505 1504 1503 1502 1501 1500 1501 1501 1500 1500 1500 1500 1501 1501 1501 1502 1502 1502 1502 1501 1501 1501 1501 1501 1502 1503 1504 1505 1506 1506 1508 1508 1511 1514 1513 1512 1512 1511 1511 1512 1512 1512 1514 1517 1519 1520 1521 1521 1521 1522 1523 1524 1525 1524 1524 1524 1525 1527 1528 1529 1530 1531
1521 1519 1518 1516 1515 1513 1512 1511 1510 1509 1509 1508 1508 1508 1508 1508 1508 1508 1508 1508 1507 1507 1507 1506 1506 1506 1505 1504 1503 1502 1501 1502 1502 1501 1501 1501 1501 1502 1502 1502 1502 1502 1502 1502 1502 1502 1501 1501 1501 1501 1502 1503 1504 1505 1505 1505 1506 1508 1510 1510 1510 1511 1512 1511 1512 1513 1514 1515 1516 1518 1520 1522 1522 1523 1524 1524 1524 1525 1525 1524 1524 1525 1526 1527 1528 1530 1531 1532
1521 1520 1518 1516 1515 1513 1512 1511 1510 1510 1509 1509 1508 1508 1509 1509 1509 1509 1508 1508 1508 1507 1507 1507 1507 1506 1505 1504 1503 1502 1502 1503 1503 1501 1502 1502 1502 1503 1503 1503 1503 1503 1503 1503 1502 1502 1501 1501 1501 1501 1502 1503 1504 1505 1504 1505 1505 1507 1509 1509 1509 1509 1510 1511 1512 1514 1515 1517 1518 1519 1521 1522 1523 1525 1526 1526 1526 1527 1526 1526 1526 1526 1527 1528 1529 1530 1531 1533
1521 1520 1518 1517 1515 1513 1512 1511 1511 1510 1509 1509 1509 1509 1509 1509 1509 1509 1509 1508 1508 1508 1508 1507 1507 1506 1505 1504 1503 1502 1502 1503 1503 1502 1503 1503 1503 1503 1503 1503 1503 1503 1503 1503 1503 1502 1502 1501 1501 1501 1502 1504 1504 1504 1504 1505 1505 1506 1508 1509 1509 1508 1509 1512 1513 1515 1517 1518 1520 1520 1521 1523 1525 1527 1528 1528 1529 1529 1528 1528 1528 1528 1528 1529 1530 1531 1532 1533
1522 1520 1518 1517 1515 1514 1513 1512 1511 1510 1510 1509 1509 1509 1509 1510 1510 1509 1509 1509 1509 1508 1508 1508 1507 1506 1506 1504 1504 1503 1502 1503 1503 1503 1504 1504 1504 1504 1504 1504 1504 1504 1504 1504 1503 1503 1503 1502 1502 1502 1503 1504 1503 1504 1504 1504 1505 1507 1508 1508 1510 1510 1511 1513 1514 1517 1519 1520 1522 1521 1523 1526 1527 1529 1529 1530 1530 1530 1530 1530 1530 1530 1530 1530 1531 1532 1533 1535
1522 1520 1518 1517 1515 1514 1513 1512 1511 1510 1510 1510 1510 1510 1510 1510 1510 1510 1510 1509 1509 1508 1508 1508 1507 1507 1506 1505 1504 1504 1504 1504 1504 1504 1504 1504 1505 1504 1504 1504 1504 1504 1504 1504 1504 1504 1503 1503 1503 1502 1503 1503 1503 1504 1503 1504 1505 1506 1508 1509 1512 1513 1514 1515 1517 1519 1521 1523 1523 1523 1526 1529 1528 1530 1530 1530 1530 1530 1531 1531 1531 1532 1532 1532 1533 1533 1534 1536
1522 1520 1518 1517 1515 1514 1513 1512 1511 1511 1510 1510 1510 1510 1510 1510 1510 1510 1510 1510 1509 1509 1508 1508 1508 1507 1506 1505 1505 1505 1505 1505 1505 1505 1505 1505 1505 1505 1505 1505 1505 1504 1504 1504 1504 1504 1504 1504 1503 1503 1503 1503 1503 1504 1503 1504 1505 1506 1509 1512 1514 1517 1518 1518 1519 1521 1522 1524 1524 1524 1528 1529 1528 1530 1531 1530 1530 1531 1531 1532 1533 1533 1533 1534 1534 1535 1536 1537
1522 1520 1519 1517 1516 1515 1513 1513 1512 1511 1511 1510 1510 1511 1511 1511 1511 1510 1510 1510 1509 1509 1508 1508 1507 1507 1506 1505 1505 1505 1505 1505 1505 1505 1505 1505 1505 1505 1505 1505 1505 1505 1505 1504 1504 1505 1504 1504 1504 1503 1503 1503 1504 1505 1505 1506 1506 1507 1508 1514 1519 1520 1521 1523 1522 1524 1524 1525 1527 1526 1527 1528 1528 1530 1530 1530 1531 1532 1533 1534 1535 1535 1535 1536 1537 1537 1538 1538
1522 1520 1519 1517 1516 1515 1514 1513 1512 1512 1511 1511 1511 1511 1511 1511 1511 1511 1510 1510 1510 1509 1509 1508 1507 1507 1506 1505 1505 1505 1505 1505 1505 1505 1505 1505 1505 1505 1505 1505 1505 1505 1505 1505 1505 1505 1505 1504 1504 1504 1504 1503 1505 1507 1509 1510 1509 1509 1508 1516 1524 1524 1525 1527 1525 1526 1525 1526 1528 1527 1529 1531 1531 1532 1531 1531 1533 1533 1535 1536 1538 1538 1539 1539 1539 1539 1540 1540
1522 1521 1519 1517 1516 1515 1514 1513 1513 1512 1512 1511 1511 1511 1511 1511 1511 1511 1511 1510 1510 1510 1509 1508 1507 1507 1506 1505 1505 1505 1505 1505 1505 1505 1506 1505 1505 1505 1505 1505 1505 1505 1505 1505 1505 1505 1505 1505 1504 1504 1504 1504 1505 1508 1512 1512 1511 1513 1512 1517 1526 1530 1532 1529 1527 1528 1526 1527 1527 1528 1534 1536 1533 1532 1533 1533 1535 1536 1537 1539 1540 1541 1542 1542 1541 1541 1542 1542
1522 1521 1519 1517 1516 1515 1514 1514 1513 1512 1512 1512 1512 1512 1512 1512 1511 1511 1511 1510 1510 1510 1509 1508 1508 1507 1506 1506 1505 1505 1505 1505 1505 1506 1506 1506 1505 1505 1505 1505 1505 1505 1505 1505 1505 1505 1505 1505 1504 1504 1504 1504 1506 1509 1512 1514 1515 1516 1518 1522 1528 1534 1536 1530 1528 1530 1529 1529 1528 1528 1535 1536 1532 1532 1534 1535 1537 1538 1540 1541 1542 1543 1543 1544 1543 1543 1544 1544
1522 1521 1519 1518 1517 1516 1515 1514 1514 1513 1513 1513 1512 1512 1512 1512 1511 1511 1511 1510 1510 1509 1509 1508 1508 1507 1506 1505 1505 1506 1506 1505 1506 1506 1505 1506 1505 1505 1505 1505 1505 1504 1504 1504 1505 1505 1505 1505 1504 1504 1505 1504 1506 1510 1514 1518 1519 1518 1524 1533 1533 1534 1537 1532 1529 1531 1531 1531 1529 1530 1535 1537 1533 1533 1535 1537 1539 1540 1541 1542 1543 1543 1544 1544 1545 1545 1545 1545
1522 1521 1519 1518 1517 1516 1515 1515 1514 1514 1514 1513 1512 1512 1512 1512 1511 1511 1511 1510 1510 1509 1509 1508 1508 1507 1507 1506 1505 1506 1506 1506 1506 1506 1506 1505 1505 1505 1505 1505 1505 1504 1504 1504 1504 1505 1505 1505 1505 1505 1504 1505 1507 1509 1515 1523 1523 1521 1526 1534 1535 1535 1539 1537 1531 1530 1530 1531 1532 1533 1537 1538 1534 1532 1536 1538 1539 1540 1541 1541 1541 1541 1543 1545 1545 1545 1546 1546
1522 1521 1519 1518 1517 1516 1516 1515 1515 1515 1514 1513 1513 1512 1512 1512 1511 1511 1511 1510 1510 1509 1509 1509 1507 1507 1506 1505 1506 1506 1506 1506 1505 1505 1505 1505 1505 1504 1504 1504 1504 1504 1504 1504 1504 1504 1504 1505 1505 1506 1505 1508 1510 1509 1517 1527 1527 1525 1527 1531 1532 1534 1539 1539 1533 1530 1530 1532 1533 1534 1536 1536 1534 1533 1536 1538 1539 1540 1541 1541 1540 1539 1541 1543 1544 1545 1545 1546
1522 1521 1519 1518 1517 1516 1516 1516 1516 1515 1514 1514 1513 1513 1512 1512 1511 1511 1511 1510 1510 1509 1509 1508 1507 1508 1508 1506 1506 1506 1506 1505 1505 1505 1505 1504 1504 1504 1504 1504 1503 1503 1503 1503 1504 1504 1504 1504 1505 1507 1507 1510 1511 1510 1518 1524 1522 1523 1526 1529 1532 1535 1537 1536 1532 1529 1529 1532 1534 1536 1536 1535 1535 1535 1537 1538 1539 1540 1541 1541 1540 1539 1539 1541 1543 1543 1544 1545
1522 1521 1519 1518 1517 1516 1516 1516 1516 1515 1514 1514 1514 1513 1512 1512 1511 1511 1511 1510 1510 1509 1510 1509 1508 1511 1511 1506 1505 1506 1506 1505 1505 1504 1505 1504 1504 1504 1503 1503 1503 1503 1503 1504 1504 1504 1504 1505 1506 1509 1510 1510 1510 1511 1514 1515 1514 1518 1523 1526 1530 1534 1534 1531 1529 1526 1528 1533 1537 1537 1537 1536 1538 1538 1537 1540 1540 1540 1541 1541 1540 1540 1541 1541 1542 1543 1543 1544
1521 1520 1519 1518 1517 1517 1516 1516 1515 1515 1515 1514 1514 1513 1512 1512 1512 1511 1510 1509 1510 1510 1510 1510 1509 1509 1508 1506 1506 1506 1505 1505 1504 1504 1504 1504 1504 1504 1503 1503 1503 1503 1505 1505 1505 1505 1505 1508 1511 1511 1511 1510 1510 1511 1513 1514 1515 1517 1521 1524 1526 1529 1528 1527 1527 1527 1527 1531 1536 1537 1537 1539 1540 1539 1538 1540 1540 1541 1542 1540 1538 1540 1541 1541 1542 1542 1543 1543
1521 1520 1519 1519 1518 1517 1516 1516 1515 1515 1515 1514 1514 1514 1514 1515 1515 1515 1512 1509 1509 1510 1510 1509 1509 1508 1507 1507 1507 1506 1506 1505 1505 1504 1504 1504 1503 1504 1504 1504 1504 1505 1507 1507 1506 1506 1506 1512 1513 1510 1510 1510 1511 1513 1514 1515 1516 1517 1520 1524 1527 1528 1527 1525 1527 1528 1527 1529 1534 1537 1538 1541 1541 1539 1539 1540 1540 1541 1541 1540 1539 1539 1540 1540 1541 1541 1542 1543
1521 1520 1519 1519 1518 1517 1517 1516 1516 1515 1515 1515 1515 1515 1516 1517 1517 1517 1515 1512 1509 1508 1509 1508 1508 1508 1507 1507 1507 1507 1507 1506 1505 1505 1505 1505 1504 1504 1504 1504 1505 1508 1508 1507 1508 1509 1512 1514 1512 1509 1511 1512 1513 1514 1513 1514 1516 1518 1520 1523 1527 1528 1527 1527 1528 1529 1530 1530 1535 1540 1541 1543 1541 1540 1540 1540 1541 1541 1541 1541 1540 1540 1539 1538 1538 1539 1540 1542
1521 1520 1519 1519 1518 1517 1517 1517 1516 1516 1516 1516 1516 1516 1517 1517 1517 1516 1516 1515 1511 1508 1508 1508 1507 1507 1507 1507 1507 1507 1507 1507 1506 1505 1505 1505 1504 1504 1504 1504 1507 1508 1509 1508 1509 1513 1516 1514 1510 1510 1511 1510 1512 1514 1513 1514 1517 1519 1520 1522 1526 1528 1527 1529 1531 1532 1532 1532 1536 1541 1544 1545 1543 1541 1541 1540 1541 1541 1541 1541 1540 1540 1538 1537 1537 1538 1540 1541
1520 1519 1519 1518 1518 1517 1517 1517 1517 1517 1517 1516 1517 1517 1517 1517 1517 1516 1516 1516 1513 1509 1507 1508 1507 1507 1507 1507 1507 1507 1507 1507 1506 1505 1505 1505 1504 1505 1504 1505 1507 1509 1511 1509 1508 1512 1515 1512 1510 1511 1511 1509 1511 1514 1513 1513 1518 1521 1520 1519 1521 1524 1525 1527 1531 1534 1535 1537 1538 1540 1545 1546 1543 1544 1543 1540 1540 1540 1540 1541 1540 1538 1537 1537 1537 1537 1539 1540
1520 1519 1519 1518 1518 1517 1517 1517 1517 1517 1517 1517 1517 1517 1517 1517 1516 1516 1515 1517 1516 1510 1507 1507 1507 1507 1507 1507 1507 1507 1507 1506 1505 1505 1505 1505 1505 1505 1505 1506 1507 1510 1513 1512 1510 1511 1512 1511 1510 1510 1511 1511 1511 1513 1513 1514 1519 1522 1520 1517 1516 1518 1522 1525 1529 1534 1539 1544 1540 1539 1545 1544 1542 1544 1543 1540 1540 1539 1539 1540 1539 1538 1536 1537 1537 1536 1538 1539
1520 1519 1518 1518 1517 1517 1517 1517 1517 1518 1517 1517 1517 1517 1517 1516 1515 1516 1516 1520 1520 1512 1508 1508 1508 1508 1507 1507 1507 1507 1508 1507 1504 1505 1505 1505 1505 1505 1506 1507 1507 1510 1512 1511 1511 1512 1512 1510 1510 1509 1510 1512 1513 1514 1515 1516 1520 1522 1518 1516 1516 1517 1521 1524 1526 1530 1537 1542 1538 1538 1545 1544 1540 1540 1539 1540 1540 1538 1537 1538 1537 1537 1536 1535 1535 1535 1536 1538
1519 1519 1518 1517 1517 1516 1517 1516 1517 1517 1517 1517 1517 1517 1517 1515 1516 1515 1517 1527 1526 1515 1511 1510 1508 1509 1508 1507 1507 1508 1511 1508 1504 1505 1505 1505 1506 1505 1507 1508 1508 1509 1509 1510 1514 1514 1511 1510 1511 1510 1509 1512 1514 1514 1515 1515 1518 1520 1516 1516 1517 1517 1519 1522 1523 1527 1534 1537 1539 1540 1542 1544 1541 1534 1535 1538 1539 1539 1537 1535 1535 1534 1535 1534 1533 1534 1534 1536
1519 1518 1517 1517 1516 1516 1516 1516 1517 1516 1517 1517 1516 1517 1516 1515 1516 1514 1520 1535 1530 1515 1512 1511 1508 1509 1508 1507 1507 1506 1508 1507 1506 1506 1504 1505 1506 1504 1506 1508 1508 1509 1508 1511 1517 1515 1510 1510 1511 1510 1510 1513 1513 1512 1513 1514 1515 1517 1516 1517 1518 1518 1520 1521 1524 1530 1534 1537 1542 1544 1542 1546 1542 1533 1535 1538 1539 1541 1536 1532 1531 1530 1532 1532 1532 1533 1533 1535
1518 1517 1517 1516 1515 1516 1516 1516 1516 1516 1516 1516 1515 1516 1515 1515 1516 1515 1525 1535 1525 1513 1514 1512 1509 1510 1508 1506 1506 1505 1505 1505 1506 1506 1504 1505 1505 1504 1506 1507 1507 1510 1510 1511 1514 1512 1510 1510 1510 1509 1511 1512 1511 1511 1512 1512 1513 1515 1516 1518 1520 1523 1524 1526 1528 1529 1534 1537 1540 1542 1541 1547 1543 1531 1535 1540 1538 1537 1531 1527 1527 1526 1529 1530 1530 1532 1532 1535
1518 1517 1516 1516 1515 1515 1515 1515 1515 1515 1515 1515 1515 1515 1515 1515 1516 1523 1535 1534 1521 1515 1514 1511 1510 1511 1509 1508 1507 1505 1505 1505 1505 1505 1504 1505 1505 1505 1506 1507 1507 1509 1511 1511 1511 1511 1510 1509 1510 1510 1510 1511 1510 1512 1514 1512 1513 1513 1515 1516 1518 1523 1524 1528 1531 1529 1536 1541 1539 1540 1540 1543 1543 1531 1531 1535 1528 1523 1522 1522 1524 1524 1526 1527 1527 1529 1531 1533
1517 1516 1516 1515 1515 1514 1514 1515 1514 1515 1515 1514 1515 1514 1515 1516 1520 1532 1538 1528 1520 1518 1513 1512 1513 1511 1511 1513 1511 1507 1506 1505 1505 1504 1505 1506 1506 1506 1507 1507 1508 1510 1514 1514 1512 1512 1511 1509 1510 1509 1509 1511 1510 1512 1514 1514 1514 1514 1515 1516 1520 1525 1526 1529 1532 1531 1540 1544 1540 1544 1543 1541 1543 1531 1523 1524 1517 1515 1517 1517 1519 1520 1521 1522 1523 1525 1528 1530
1516 1516 1515 1515 1515 1514 1514 1514 1514 1514 1514 1514 1515 1514 1515 1521 1527 1534 1532 1523 1523 1522 1516 1517 1516 1513 1514 1515 1514 1511 1508 1507 1506 1505 1507 1509 1509 1508 1510 1511 1511 1515 1522 1523 1518 1515 1512 1510 1511 1510 1509 1510 1510 1513 1515 1515 1515 1515 1516 1520 1527 1536 1537 1537 1540 1542 1545 1542 1539 1545 1543 1539 1538 1524 1515 1517 1514 1513 1514 1512 1512 1515 1516 1518 1519 1521 1524 1528
1516 1515 1515 1515 1514 1514 1514 1514 1513 1514 1514 1513 1514 1513 1517 1528 1534 1533 1529 1524 1524 1521 1518 1519 1517 1516 1517 1515 1515 1514 1511 1510 1508 1507 1509 1510 1511 1511 1513 1514 1512 1515 1522 1527 1525 1519 1516 1514 1511 1510 1509 1510 1510 1514 1517 1516 1515 1515 1516 1521 1529 1540 1548 1549 1552 1554 1549 1541 1540 1544 1541 1538 1533 1520 1514 1515 1512 1511 1510 1509 1510 1511 1513 1515 1517 1519 1521 1524
1515 1515 1515 1514 1514 1514 1514 1514 1513 1513 1513 1513 1514 1515 1522 1532 1534 1531 1527 1525 1523 1520 1519 1520 1518 1517 1517 1517 1517 1515 1513 1512 1510 1509 1509 1510 1512 1512 1513 1515 1514 1514 1518 1526 1529 1526 1527 1524 1515 1511 1512 1511 1510 1512 1514 1514 1516 1519 1521 1522 1525 1532 1539 1545 1547 1546 1543 1541 1542 1542 1538 1534 1528 1518 1514 1513 1512 1511 1509 1508 1509 1509 1513 1515 1517 1519 1520 1522
1515 1515 1515 1514 1515 1515 1514 1514 1514 1513 1513 1513 1514 1519 1527 1532 1532 1530 1527 1523 1521 1520 1520 1521 1520 1518 1519 1519 1518 1516 1514 1514 1511 1511 1512 1513 1516 1515 1515 1514 1515 1515 1517 1524 1529 1530 1533 1528 1516 1512 1512 1511 1511 1512 1512 1513 1517 1524 1524 1521 1523 1523 1526 1540 1548 1546 1544 1544 1542 1541 1536 1530 1524 1516 1514 1514 1512 1510 1508 1507 1509 1509 1511 1515 1516 1518 1519 1520
1514 1515 1515 1515 1515 1515 1514 1514 1514 1513 1513 1512 1516 1523 1527 1528 1527 1527 1524 1520 1521 1521 1521 1522 1522 1522 1523 1522 1519 1517 1515 1514 1513 1513 1514 1518 1519 1518 1517 1515 1514 1515 1515 1520 1528 1530 1531 1525 1515 1513 1512 1511 1512 1512 1512 1514 1518 1523 1523 1521 1524 1524 1523 1536 1550 1553 1551 1547 1543 1543 1535 1526 1523 1517 1513 1514 1511 1509 1510 1509 1509 1510 1511 1513 1514 1515 1517 1518
1514 1514 1515 1515 1515 1515 1515 1515 1514 1514 1513 1513 1518 1525 1526 1523 1521 1522 1521 1520 1521 1521 1522 1525 1526 1526 1528 1526 1522 1519 1515 1514 1515 1515 1517 1521 1519 1517 1517 1515 1514 1514 1513 1516 1522 1526 1528 1524 1516 1515 1514 1511 1512 1512 1511 1513 1516 1520 1522 1520 1523 1525 1525 1530 1540 1548 1554 1550 1543 1543 1539 1531 1529 1522 1513 1512 1511 1509 1511 1511 1510 1511 1511 1512 1512 1513 1515 1517
1515 1515 1515 1516 1516 1516 1516 1515 1514 1513 1513 1515 1521 1525 1524 1521 1519 1519 1520 1519 1520 1521 1523 1528 1528 1528 1530 1529 1525 1521 1518 1517 1518 1519 1520 1521 1520 1517 1516 1516 1514 1514 1513 1513 1516 1523 1527 1525 1519 1517 1516 1513 1511 1512 1515 1515 1514 1516 1518 1519 1522 1525 1527 1531 1537 1542 1549 1552 1546 1543 1544 1539 1533 1523 1513 1510 1510 1508 1511 1513 1512 1511 1510 1510 1511 1512 1515 1516
1515 1515 1516 1516 1517 1516 1516 1515 1514 1513 1513 1518 1525 1525 1523 1521 1519 1519 1519 1519 1520 1521 1524 1528 1528 1528 1529 1528 1525 1523 1521 1521 1522 1523 1522 1522 1521 1516 1515 1516 1514 1513 1513 1512 1515 1522 1526 1526 1523 1517 1515 1515 1513 1514 1520 1521 1518 1516 1517 1520 1523 1526 1528 1531 1535 1536 1539 1549 1551 1544 1540 1534 1525 1519 1512 1508 1508 1508 1510 1512 1511 1509 1509 1508 1509 1511 1513 1514
1515 1515 1516 1517 1517 1517 1517 1516 1514 1514 1516 1521 1525 1523 1522 1520 1519 1518 1519 1519 1520 1521 1524 1526 1527 1528 1527 1527 1526 1524 1523 1523 1523 1524 1523 1522 1521 1516 1515 1516 1514 1513 1513 1513 1517 1522 1524 1527 1527 1519 1515 1518 1517 1518 1522 1523 1521 1520 1520 1522 1523 1528 1532 1532 1535 1538 1536 1541 1549 1548 1541 1527 1516 1514 1511 1506 1507 1508 1509 1509 1508 1508 1507 1507 1509 1510 1511 1513
1515 1516 1517 1517 1517 1517 1517 1516 1516 1517 1520 1523 1524 1522 1521 1520 1518 1519 1519 1519 1520 1520 1522 1524 1525 1526 1526 1526 1526 1524 1524 1523 1523 1523 1523 1522 1521 1519 1517 1515 1514 1514 1513 1514 1518 1521 1523 1526 1527 1524 1519 1520 1519 1519 1520 1520 1521 1521 1520 1522 1524 1526 1531 1532 1537 1541 1538 1538 1544 1547 1542 1525 1511 1510 1510 1507 1507 1508 1507 1507 1506 1506 1506 1506 1508 1509 1511 1512
1516 1518 1518 1518 1518 1518 1517 1518 1520 1521 1521 1522 1522 1521 1520 1519 1519 1519 1519 1519 1520 1520 1521 1522 1524 1525 1525 1525 1525 1524 1524 1523 1523 1523 1523 1522 1522 1520 1517 1515 1515 1514 1514 1517 1520 1520 1521 1524 1525 1525 1524 1522 1520 1520 1520 1520 1521 1522 1522 1524 1526 1525 1526 1530 1535 1537 1538 1541 1543 1545 1543 1525 1509 1510 1510 1507 1508 1507 1506 1506 1506 1505 1505 1506 1507 1508 1510 1511
1518 1519 1518 1518 1518 1518 1518 1520 1523 1523 1522 1521 1520 1519 1519 1519 1519 1519 1519 1519 1519 1520 1521 1522 1523 1524 1523 1524 1524 1524 1524 1523 1523 1523 1522 1522 1520 1518 1517 1515 1514 1515 1515 1518 1520 1519 1521 1525 1527 1527 1525 1522 1519 1518 1520 1521 1521 1523 1524 1526 1527 1526 1525 1528 1531 1532 1534 1539 1538 1541 1542 1524 1508 1509 1509 1506 1507 1505 1504 1505 1504 1504 1505 1505 1507 1508 1509 1510
1520 1520 1519 1519 1519 1518 1519 1523 1525 1525 1523 1521 1519 1518 1518 1518 1519 1519 1519 1520 1520 1520 1521 1521 1522 1523 1523 1523 1524 1524 1525 1525 1524 1523 1523 1522 1519 1517 1517 1515 1515 1516 1515 1517 1519 1518 1521 1528 1531 1532 1533 1530 1526 1524 1524 1523 1523 1526 1528 1529 1527 1527 1528 1529 1532 1533 1533 1534 1533 1535 1536 1521 1508 1508 1507 1505 1506 1504 1503 1504 1503 1504 1504 1504 1506 1507 1508 1509
1520 1521 1520 1520 1519 1518 1521 1525 1525 1525 1525 1523 1521 1520 1519 1519 1519 1519 1519 1520 1520 1521 1521 1521 1522 1522 1523 1524 1524 1524 1525 1525 1524 1524 1523 1523 1520 1517 1517 1516 1515 1516 1515 1517 1517 1517 1521 1528 1529 1532 1539 1541 1537 1533 1529 1526 1527 1529 1529 1529 1528 1528 1529 1528 1531 1533 1533 1535 1536 1531 1526 1517 1508 1507 1506 1505 1506 1504 1502 1503 1503 1503 1503 1503 1504 1505 1506 1507
1521 1522 1522 1522 1521 1520 1523 1525 1525 1525 1526 1525 1524 1523 1522 1520 1519 1519 1519 1519 1520 1520 1521 1521 1521 1522 1523 1524 1524 1526 1525 1525 1525 1525 1523 1523 1520 1518 1518 1517 1516 1516 1516 1517 1517 1518 1524 1529 1528 1528 1532 1534 1531 1528 1528 1529 1529 1528 1527 1527 1529 1530 1529 1528 1531 1532 1531 1534 1534 1525 1520 1517 1510 1507 1506 1504 1504 1504 1502 1502 1502 1502 1501 1501 1502 1503 1504 1505
1523 1525 1526 1525 1524 1524 1524 1525 1525 1525 1526 1526 1525 1525 1524 1522 1520 1519 1518 1519 1520 1520 1520 1521 1522 1523 1524 1525 1526 1527 1527 1526 1526 1525 1525 1524 1522 1520 1519 1518 1518 1517 1517 1518 1517 1520 1524 1527 1528 1528 1526 1527 1526 1525 1528 1531 1529 1527 1526 1526 1527 1529 1529 1528 1529 1528 1528 1532 1530 1520 1519 1519 1512 1507 1506 1504 1503 1503 1502 1500 1500 1500 1500 1500 1500 1501 1502 1503
1525 1526 1528 1528 1528 1528 1528 1527 1527 1526 1526 1526 1526 1526 1525 1523 1523 1521 1519 1518 1519 1519 1520 1522 1522 1523 1524 1524 1525 1527 1528 1528 1528 1527 1526 1525 1524 1522 1520 1518 1519 1518 1518 1518 1518 1520 1523 1525 1529 1530 1526 1525 1527 1527 1529 1530 1528 1528 1527 1525 1525 1527 1529 1528 1526 1525 1526 1527 1523 1518 1519 1518 1510 1506 1505 1502 1501 1501 1500 1500 1499 1499 1499 1499 1499 1500 1500 1501
1526 1527 1528 1528 1528 1529 1529 1529 1529 1528 1527 1527 1526 1526 1526 1525 1524 1523 1522 1520 1519 1519 1520 1522 1522 1522 1523 1524 1524 1526 1528 1529 1529 1528 1526 1525 1526 1525 1523 1521 1520 1518 1519 1519 1520 1521 1523 1525 1529 1531 1528 1525 1526 1527 1529 1529 1528 1527 1525 1524 1523 1524 1525 1526 1525 1524 1524 1522 1518 1517 1521 1518 1510 1506 1503 1500 1499 1500 1499 1499 1498 1497 1497 1497 1498 1498 1498 1498
1527 1527 1528 1528 1528 1528 1529 1529 1529 1529 1528 1527 1527 1527 1527 1527 1525 1525 1523 1521 1521 1520 1520 1521 1521 1521 1523 1524 1523 1524 1525 1525 1525 1525 1524 1525 1526 1526 1524 1522 1520 1520 1520 1520 1522 1523 1523 1527 1532 1531 1529 1527 1524 1526 1530 1531 1531 1528 1525 1523 1523 1522 1524 1525 1524 1524 1523 1522 1519 1519 1522 1518 1509 1504 1502 1498 1498 1498 1497 1496 1495 1495 1495 1496 1496 1496 1496 1497
1527 1527 1528 1528 1528 1529 1529 1529 1530 1530 1529 1530 1529 1528 1528 1527 1526 1526 1523 1520 1520 1520 1519 1518 1519 1520 1522 1524 1523 1522 1521 1521 1521 1521 1520 1522 1522 1522 1522 1521 1520 1521 1520 1521 1523 1522 1523 1529 1531 1531 1532 1529 1525 1527 1530 1529 1530 1528 1522 1519 1519 1520 1521 1519 1518 1518 1517 1516 1517 1519 1519 1511 1503 1502 1500 1497 1496 1496 1495 1494 1493 1492 1493 1494 1494 1494 1494 1494
1527 1527 1527 1528 1528 1529 1529 1529 1530 1530 1530 1531 1532 1531 1530 1527 1526 1526 1523 1519 1518 1518 1518 1517 1517 1519 1521 1522 1521 1519 1518 1518 1519 1519 1519 1519 1519 1519 1519 1519 1519 1520 1520 1521 1523 1524 1524 1526 1528 1531 1533 1529 1528 1532 1530 1527 1529 1526 1517 1511 1512 1514 1516 1514 1512 1512 1512 1512 1514 1515 1510 1504 1501 1502 1500 1497 1495 1495 1493 1492 1491 1491 1491 1491 1491 1491 1491 1491